Location: Newark
(13.8117°N, 3.6025°W)
Time: 00:20:24
(UTC+00:00)

Transit 4A - All Passes

Search period start: 24 August 2019 00:00
Search period end: 03 September 2019 00:00
Orbit: 863 x 981 km, 66.8° (Epoch: 22 August)

Date Brightness Start Highest point End Pass type
(mag) Time Alt. Az. Time Alt. Az. Time Alt. Az.
24 Aug - 03:12:15 10° N 03:17:10 26° ENE 03:21:58 10° ESE visible
24 Aug - 04:58:24 10° NW 05:03:15 26° WSW 05:08:02 10° SSW visible
24 Aug - 16:16:22 10° S 16:22:22 47° ESE 16:28:27 10° NE daylight
24 Aug - 18:04:43 10° WSW 18:08:44 17° WNW 18:12:47 10° NNW daylight
25 Aug - 03:20:53 10° N 03:26:33 44° ENE 03:32:05 10° SE visible
25 Aug - 05:09:15 10° WNW 05:12:26 15° WSW 05:15:36 10° SW visible
25 Aug - 16:25:19 10° SSW 16:31:37 79° ESE 16:38:02 10° NNE daylight
26 Aug - 03:29:54 10° NNW 03:35:54 75° ENE 03:41:43 10° SSE visible
26 Aug - 14:53:21 10° ESE 14:55:06 11° ESE 14:56:52 10° E daylight
26 Aug - 16:34:41 10° SSW 16:40:56 64° WNW 16:47:17 10° NNE daylight
27 Aug - 01:57:33 10° NE 01:58:38 10° ENE 01:59:41 10° ENE night (unlit)
27 Aug - 03:39:16 10° NNW 03:45:10 64° WSW 03:50:55 10° S night (unlit)
27 Aug - 14:59:49 10° SSE 15:04:18 20° ESE 15:08:48 10° ENE daylight
27 Aug - 16:44:27 10° SW 16:50:18 39° WNW 16:56:13 10° N daylight
28 Aug - 02:04:05 10° NNE 02:08:09 19° ENE 02:12:09 10° ESE night (unlit)
28 Aug - 03:48:59 10° NW 03:54:24 37° WSW 03:59:42 10° S night (unlit)
28 Aug - 15:07:54 10° S 15:13:30 34° ESE 15:19:11 10° NE daylight
28 Aug - 16:54:45 10° WSW 16:59:43 24° WNW 17:04:44 10° NNW daylight
29 Aug - 02:12:21 10° N 02:17:36 31° ENE 02:22:42 10° SE night (unlit)
29 Aug - 03:59:13 10° WNW 04:03:36 21° WSW 04:07:54 10° SSW night (unlit)
29 Aug - 15:16:35 10° S 15:22:45 57° ESE 15:29:00 10° NNE daylight
29 Aug - 17:05:58 10° W 17:09:13 14° WNW 17:12:28 10° NNW daylight
30 Aug - 02:21:08 10° N 02:26:58 53° ENE 02:32:37 10° SE night (unlit)
30 Aug - 04:10:47 10° W 04:12:46 12° WSW 04:14:46 10° SW night (unlit)
30 Aug - 15:25:41 10° SSW 15:32:02 87° WNW 15:38:27 10° NNE daylight
31 Aug - 02:30:17 10° NNW 02:36:16 90° WSW 02:42:05 10° SSE night (unlit)
31 Aug - 13:52:17 10° SE 13:55:27 14° ESE 13:58:38 10° ENE daylight
31 Aug - 15:35:11 10° SW 15:41:21 54° WNW 15:47:35 10° N daylight
01 Sep - 00:56:26 10° NE 00:59:06 13° ENE 01:01:44 10° E night (unlit)
01 Sep - 02:39:46 10° NNW 02:45:31 52° WSW 02:51:09 10° S night (unlit)
01 Sep - 13:59:40 10° SSE 14:04:39 25° ESE 14:09:41 10° NE daylight
01 Sep - 15:45:08 10° SW 15:50:44 33° WNW 15:56:23 10° N daylight
02 Sep - 01:04:00 10° NNE 01:08:35 23° ENE 01:13:04 10° ESE night (unlit)
02 Sep - 02:49:38 10° NW 02:54:44 30° WSW 02:59:45 10° SSW night (unlit)
02 Sep - 14:08:00 10° S 14:13:53 41° ESE 14:19:50 10° NE daylight
02 Sep - 15:55:41 10° WSW 16:00:11 20° WNW 16:04:42 10° NNW daylight
